sat.trackr.live / text

‹ back to catalog

STARLINK-35351

NORAD 65668 · 2025-211S

PAYLOAD ACTIVE UNKNOWN

§ Identity

Operator
Country
US
Launch date
2025-09-19
Launch site
AFWTR
Launch vehicle
Mass (kg)
RCS (m²)

Purposes: comms

External: N2YO · Heavens-Above · Gunter

§ Orbital elements

Epoch: 2026-05-25T02:35:16.831680Z

Period
95.64 min
Inclination
97.4492°
Eccentricity
0.0002674
Mean motion
15.05659143 rev/d
Perigee alt
547.6 km
Apogee alt
551.3 km
Semi-major
6,927.6 km
B*
2.4684e-4
RAAN
189.0720°
Arg perigee
119.7355°
Mean anomaly
240.4139°
Rev number
3,854

§ Raw data

STARLINK-353511 65668U 25211S   26145.10783370  .00003506  00000+0  24684-3 0  99992 65668  97.4492 189.0720 0002674 119.7355 240.4139 15.05659143 38547

JSON: /api/v1/satellites/65668 · /tle

For live sub-satellite position, see the globe view (requires WebGL).

§ Visibility from observer

Set your observer location to see the next 7 days of passes ≥ 10°. The values pass through the URL so the page stays shareable.

No JS? Fill the form by hand. The geolocation button needs JavaScript.